User: anonymous   Login
Location: Arbon
(43.0005°N, 0.7472°E)
Time: 22:40:00
(UTC+00:00)
Language:

S-56A Canister/Altair - Orbit

View from above orbital plane
View from above orbital plane
View from above satellite
View from above satellite

Ground track
Ground track

The orbit data is extracted from the following two-line orbital elements,

1    82U 61004B   20330.47738719 -.00000102 +00000-0 -41028-4 0  9999
2    82 038.8574 322.1353 1174807 140.7886 228.4121 12.26055017827576
Epoch (UTC): 25 November 2020 11:27:26
Eccentricity: 0.1174807
inclination: 38.8574°
perigee height: 633 km
apogee height: 2499 km
right ascension of ascending node: 322.1353°
argument of perigee: 140.7886°
revolutions per day: 12.26055017
mean anomaly at epoch: 228.4121°
orbit number at epoch: 82757

The dashed part of the orbit path shows where the satellite is in the earth's shadow,  

DLR